When you browse on this site, cookies collect data to enhance your experience and personalize the content and advertising you see.
Visit our Privacy Policy to learn more. By continuing to use the site, you agree to this use of cookies and data.
  • en France
  • Liste des pays
  • À 7 jours
  • Température de l'eau
  • Carte satellitaire
  • Carte météo
  • Widgets météo
  • user-avatar
    Se connecter

    Météo par heure à Annaba

    Ce jour, 22 Janvier, Mardi

    Heure Température Précipitation Vent Pression Humidité
    00:00 +8°C° 0.3 mm 6 m/s 758 mmHg 86%
    01:00 +8°C° 0.3 mm 5 m/s 759 mmHg 86%
    02:00 +7°C° 0.2 mm 5 m/s 759 mmHg 87%
    03:00 +7°C° 0.2 mm 5 m/s 759 mmHg 87%
    04:00 +7°C° 0.2 mm 5 m/s 758 mmHg 88%
    05:00 +6°C° 0.2 mm 5 m/s 758 mmHg 88%
    06:00 +6°C° 0.2 mm 5 m/s 759 mmHg 88%
    07:00 +6°C° 0.2 mm 5 m/s 759 mmHg 88%
    08:00 +7°C° 0.1 mm 5 m/s 759 mmHg 84%
    09:00 +8°C° 0.1 mm 4 m/s 759 mmHg 80%
    10:00 +10°C° 0.1 mm 4 m/s 759 mmHg 76%
    11:00 +11°C° 0.2 mm 4 m/s 758 mmHg 72%
    12:00 +12°C° 0.2 mm 4 m/s 758 mmHg 68%
    13:00 +12°C° 0.2 mm 4 m/s 757 mmHg 64%
    14:00 +12°C° 0.5 mm 4 m/s 757 mmHg 65%
    15:00 +12°C° 0.5 mm 4 m/s 757 mmHg 65%
    16:00 +12°C° 0.5 mm 5 m/s 756 mmHg 66%
    17:00 +11°C° 0.7 mm 4 m/s 756 mmHg 71%
    18:00 +8°C° 0.7 mm 4 m/s 756 mmHg 77%
    19:00 +7°C° 0.7 mm 4 m/s 756 mmHg 82%
    20:00 +7°C° 0.6 mm 4 m/s 756 mmHg 83%
    21:00 +7°C° 0.6 mm 4 m/s 756 mmHg 85%
    22:00 +6°C° 0.6 mm 4 m/s 756 mmHg 86%
    23:00 +6°C° 0.4 mm 4 m/s 755 mmHg 85%

    Demain, 23 Janvier, Mercredi

    Heure Température Précipitation Vent Pression Humidité
    00:00 +6°C° 0.4 mm 4 m/s 755 mmHg 83%
    01:00 +6°C° 0.4 mm 4 m/s 754 mmHg 82%
    02:00 +5°C° 0 mm 4 m/s 754 mmHg 81%
    03:00 +5°C° 0 mm 4 m/s 753 mmHg 80%
    04:00 +5°C° 0 mm 4 m/s 753 mmHg 80%
    05:00 +5°C° 0 mm 4 m/s 752 mmHg 78%
    06:00 +5°C° 0 mm 4 m/s 752 mmHg 76%
    07:00 +5°C° 0 mm 4 m/s 751 mmHg 74%
    08:00 +6°C° 0.2 mm 4 m/s 751 mmHg 71%
    09:00 +8°C° 0.2 mm 4 m/s 751 mmHg 69%
    10:00 +9°C° 0.2 mm 5 m/s 751 mmHg 66%
    11:00 +10°C° 0.2 mm 7 m/s 750 mmHg 65%
    12:00 +11°C° 0.2 mm 9 m/s 750 mmHg 65%
    13:00 +11°C° 0.2 mm 11 m/s 749 mmHg 64%
    14:00 +11°C° 0.4 mm 10 m/s 749 mmHg 68%
    15:00 +10°C° 0.4 mm 9 m/s 748 mmHg 72%
    16:00 +10°C° 0.4 mm 8 m/s 748 mmHg 76%
    17:00 +9°C° 1.9 mm 7 m/s 747 mmHg 80%
    18:00 +8°C° 1.9 mm 6 m/s 746 mmHg 85%
    19:00 +7°C° 1.9 mm 5 m/s 746 mmHg 90%
    20:00 +8°C° 3.6 mm 6 m/s 745 mmHg 88%
    21:00 +7°C° 3.6 mm 8 m/s 745 mmHg 86%
    22:00 +8°C° 3.6 mm 9 m/s 745 mmHg 84%
    23:00 +7°C° 2.4 mm 8 m/s 745 mmHg 87%

    Après-demain, 24 Janvier, Jeudi

    Heure Température Précipitation Vent Pression Humidité
    00:00 +6°C° 2.4 mm 8 m/s 744 mmHg 90%
    01:00 +5°C° 2.4 mm 7 m/s 743 mmHg 94%
    02:00 +6°C° 1.3 mm 9 m/s 743 mmHg 86%
    03:00 +6°C° 1.3 mm 10 m/s 743 mmHg 79%
    04:00 +5°C° 1.3 mm 12 m/s 744 mmHg 72%
    05:00 +4°C° 0.1 mm 12 m/s 743 mmHg 70%
    06:00 +4°C° 0.1 mm 12 m/s 743 mmHg 69%
    07:00 +4°C° 0.1 mm 12 m/s 743 mmHg 67%
    08:00 +5°C° 0.2 mm 13 m/s 742 mmHg 66%
    09:00 +5°C° 0.2 mm 14 m/s 742 mmHg 65%
    10:00 +5°C° 0.2 mm 14 m/s 742 mmHg 64%
    11:00 +5°C° 1.7 mm 15 m/s 741 mmHg 69%
    12:00 +5°C° 1.7 mm 16 m/s 741 mmHg 75%
    13:00 +4°C° 1.7 mm 16 m/s 740 mmHg 81%
    14:00 +5°C° 4.2 mm 15 m/s 741 mmHg 81%
    15:00 +6°C° 4.2 mm 14 m/s 741 mmHg 81%
    16:00 +7°C° 4.2 mm 13 m/s 741 mmHg 81%
    17:00 +8°C° 1.1 mm 13 m/s 742 mmHg 81%
    18:00 +8°C° 1.1 mm 13 m/s 743 mmHg 80%
    19:00 +8°C° 1.1 mm 13 m/s 744 mmHg 79%
    20:00 +8°C° 0.9 mm 13 m/s 746 mmHg 79%
    21:00 +8°C° 0.9 mm 13 m/s 747 mmHg 79%
    22:00 +8°C° 0.9 mm 13 m/s 748 mmHg 79%
    23:00 +7°C° 3.2 mm 13 m/s 749 mmHg 81%

    25 Janvier, Vendredi

    Heure Température Précipitation Vent Pression Humidité
    00:00 +7°C° 3.2 mm 13 m/s 749 mmHg 83%
    01:00 +7°C° 3.2 mm 12 m/s 750 mmHg 85%
    02:00 +7°C° 1.4 mm 12 m/s 750 mmHg 84%
    03:00 +7°C° 1.4 mm 11 m/s 750 mmHg 83%
    04:00 +7°C° 1.4 mm 10 m/s 751 mmHg 82%
    05:00 +7°C° 0.5 mm 10 m/s 751 mmHg 82%
    06:00 +6°C° 0.5 mm 10 m/s 752 mmHg 82%
    07:00 +6°C° 0.5 mm 9 m/s 753 mmHg 82%
    08:00 +7°C° 0.4 mm 9 m/s 754 mmHg 82%
    09:00 +7°C° 0.4 mm 9 m/s 754 mmHg 81%
    10:00 +7°C° 0.4 mm 9 m/s 755 mmHg 81%
    11:00 +8°C° 0.6 mm 10 m/s 755 mmHg 79%
    12:00 +8°C° 0.6 mm 10 m/s 755 mmHg 77%
    13:00 +8°C° 0.6 mm 11 m/s 756 mmHg 75%
    14:00 +8°C° 0.5 mm 11 m/s 756 mmHg 75%
    15:00 +8°C° 0.5 mm 10 m/s 756 mmHg 76%
    16:00 +8°C° 0.5 mm 10 m/s 756 mmHg 76%
    17:00 +7°C° 0.3 mm 10 m/s 757 mmHg 77%
    18:00 +7°C° 0.3 mm 9 m/s 757 mmHg 78%
    19:00 +6°C° 0.3 mm 9 m/s 757 mmHg 79%
    20:00 +6°C° 0.6 mm 9 m/s 758 mmHg 79%
    21:00 +6°C° 0.6 mm 10 m/s 758 mmHg 79%
    22:00 +6°C° 0.6 mm 10 m/s 758 mmHg 78%
    23:00 +6°C° 0.6 mm 9 m/s 758 mmHg 79%

    26 Janvier, Samedi

    Heure Température Précipitation Vent Pression Humidité
    00:00 +6°C° 0.6 mm 9 m/s 758 mmHg 81%
    01:00 +6°C° 0.6 mm 8 m/s 758 mmHg 82%
    02:00 +7°C° 0.1 mm 8 m/s 757 mmHg 80%
    03:00 +8°C° 0.1 mm 7 m/s 757 mmHg 79%
    04:00 +8°C° 0.1 mm 7 m/s 757 mmHg 77%
    05:00 +8°C° 0.4 mm 7 m/s 757 mmHg 81%
    06:00 +9°C° 0.4 mm 7 m/s 757 mmHg 84%
    07:00 +9°C° 0.4 mm 8 m/s 757 mmHg 87%
    08:00 +10°C° 1 mm 8 m/s 757 mmHg 86%
    09:00 +10°C° 1 mm 8 m/s 758 mmHg 84%
    10:00 +11°C° 1 mm 9 m/s 758 mmHg 83%
    11:00 +11°C° 0.4 mm 9 m/s 758 mmHg 80%
    12:00 +12°C° 0.4 mm 9 m/s 758 mmHg 76%
    13:00 +13°C° 0.4 mm 9 m/s 758 mmHg 73%
    14:00 +13°C° 0.3 mm 8 m/s 758 mmHg 75%
    15:00 +12°C° 0.3 mm 7 m/s 758 mmHg 78%
    16:00 +13°C° 0.3 mm 6 m/s 757 mmHg 80%
    17:00 +11°C° 0.2 mm 6 m/s 757 mmHg 82%
    18:00 +10°C° 0.2 mm 5 m/s 757 mmHg 84%
    19:00 +9°C° 0.2 mm 5 m/s 757 mmHg 85%
    20:00 +10°C° 0 mm 4 m/s 757 mmHg 85%
    21:00 +8°C° 0 mm 4 m/s 757 mmHg 84%
    22:00 +8°C° 0 mm 4 m/s 757 mmHg 84%
    23:00 +7°C° 0 mm 4 m/s 756 mmHg 82%

    27 Janvier, Dimanche

    Heure Température Précipitation Vent Pression Humidité
    00:00 +7°C° 0 mm 4 m/s 756 mmHg 80%
    01:00 +7°C° 0 mm 4 m/s 755 mmHg 78%
    02:00 +7°C° 0 mm 4 m/s 755 mmHg 77%
    03:00 +7°C° 0 mm 4 m/s 754 mmHg 75%
    04:00 +7°C° 0 mm 4 m/s 754 mmHg 73%
    05:00 +7°C° 0 mm 5 m/s 753 mmHg 74%
    06:00 +7°C° 0 mm 5 m/s 753 mmHg 75%
    07:00 +7°C° 0 mm 6 m/s 753 mmHg 76%
    08:00 +8°C° 0.3 mm 6 m/s 753 mmHg 77%
    09:00 +9°C° 0.3 mm 6 m/s 753 mmHg 77%
    10:00 +10°C° 0.3 mm 6 m/s 754 mmHg 78%
    11:00 +10°C° 1 mm 5 m/s 753 mmHg 81%
    12:00 +9°C° 1 mm 5 m/s 753 mmHg 84%
    13:00 +10°C° 1 mm 4 m/s 753 mmHg 87%
    14:00 +8°C° 1.3 mm 4 m/s 753 mmHg 87%
    15:00 +8°C° 1.3 mm 5 m/s 753 mmHg 88%
    16:00 +8°C° 1.3 mm 6 m/s 753 mmHg 89%
    17:00 +7°C° 0.8 mm 6 m/s 753 mmHg 88%
    18:00 +7°C° 0.8 mm 5 m/s 754 mmHg 87%
    19:00 +7°C° 0.8 mm 5 m/s 754 mmHg 87%
    20:00 +6°C° 0.6 mm 5 m/s 755 mmHg 87%
    21:00 +6°C° 0.6 mm 4 m/s 755 mmHg 88%
    22:00 +5°C° 0.6 mm 4 m/s 755 mmHg 88%
    23:00 +5°C° 0.1 mm 4 m/s 754 mmHg 87%
    Voir plus